EST,Max TemperatureF,Mean TemperatureF,Min TemperatureF,Max Dew PointF,MeanDew PointF,Min DewpointF,Max Humidity, Mean Humidity, Min Humidity, Max Sea Level PressureIn, Mean Sea Level PressureIn, Min Sea Level PressureIn, Max VisibilityMiles, Mean VisibilityMiles, Min VisibilityMiles, Max Wind SpeedMPH, Mean Wind SpeedMPH, Max Gust SpeedMPH,PrecipitationIn, CloudCover, Events, WindDirDegrees
2013-2-1,31,27,22,14,8,3,55,43,31,30.26,29.99,29.83,10,10,10,24,10,31,T,4,,301
2013-2-2,29,23,17,21,10,3,88,62,35,30.31,30.17,30.05,10,8,2,16,7,22,0.01,4,Snow,261
2013-2-3,31,27,22,23,20,18,96,80,63,30.03,29.90,29.80,10,7,2,12,3,15,0.02,7,Snow,340
2013-2-4,30,26,21,21,11,7,68,54,39,30.01,29.95,29.85,10,10,8,18,9,26,0.00,2,,294
2013-2-5,33,30,27,29,26,21,92,84,75,29.94,29.90,29.87,10,5,2,7,3,9,T,8,Snow,86
2013-2-6,39,32,24,28,23,13,92,70,48,30.34,30.07,29.91,10,6,0,16,6,24,0.01,4,Fog-Snow,323
2013-2-7,34,28,22,23,14,11,65,54,43,30.48,30.40,30.27,10,10,10,14,5,17,0.00,2,,85
2013-2-8,38,35,31,33,30,25,96,81,66,30.24,29.86,29.65,10,6,1,22,13,30,0.37,8,Rain-Snow,45
2013-2-9,33,27,21,30,21,7,100,70,39,30.35,29.95,29.77,10,5,0,26,14,38,0.10,5,Fog-Snow,343
2013-2-10,36,25,14,20,12,6,74,55,35,30.48,30.39,30.31,10,10,10,10,4,14,0.00,0,,241
2013-2-11,48,40,31,47,37,22,100,82,63,30.29,29.89,29.65,10,4,0,14,4,18,0.26,7,Fog-Rain,314
2013-2-12,45,38,30,37,24,22,89,67,45,29.97,29.88,29.75,10,10,9,23,9,36,0.00,1,,313
2013-2-13,43,34,25,32,27,21,89,70,51,29.96,29.77,29.68,10,6,1,10,4,18,0.08,5,Rain-Snow,28
2013-2-14,46,38,29,32,30,26,100,75,49,30.00,29.86,29.71,10,5,0,10,4,17,0.04,4,Fog-Snow,312
2013-2-15,56,43,30,35,30,27,92,67,41,30.02,29.96,29.90,10,7,2,17,5,22,0.01,3,Rain,271
2013-2-16,39,35,30,34,26,10,92,70,47,29.98,29.89,29.75,10,8,4,21,9,29,0.05,8,Rain-Snow,2
2013-2-17,32,26,20,9,4,-1,43,37,31,30.04,29.80,29.71,10,10,10,22,15,44,0.00,3,,343
2013-2-18,36,27,18,13,6,0,49,41,32,30.28,30.20,30.06,10,10,10,22,10,36,0.00,0,,305
2013-2-19,47,36,25,43,31,13,96,73,49,30.17,29.87,29.70,10,8,4,24,8,35,0.19,4,Rain,224
2013-2-20,37,32,26,23,12,8,59,49,39,30.02,29.90,29.76,10,10,10,28,14,36,T,4,,312
2013-2-21,36,30,24,14,12,9,60,49,38,30.27,30.10,30.01,10,10,10,23,13,32,0.00,3,,336
2013-2-22,37,30,22,29,22,13,82,67,52,30.40,30.30,30.24,10,10,9,12,5,15,T,4,,96
2013-2-23,46,40,33,45,38,28,100,91,82,30.25,30.03,29.79,10,4,1,17,7,23,0.15,8,Rain,81
2013-2-24,48,40,32,37,30,19,92,71,49,30.00,29.83,29.76,10,10,7,21,9,30,T,5,,345
2013-2-25,44,37,29,26,23,19,69,57,45,30.22,30.13,30.01,10,10,10,16,5,20,0.00,3,,351
2013-2-26,45,36,26,35,29,23,92,73,53,30.25,30.11,29.81,10,9,4,24,10,35,0.24,5,Rain,109
2013-2-27,51,45,38,46,41,36,100,81,61,29.75,29.56,29.49,10,6,1,29,12,37,0.27,8,Rain,30
2013-2-28,47,41,35,35,30,24,76,61,45,29.63,29.60,29.56,10,10,10,14,7,18,T,6,Rain,300